Istanbul, Turkey

12:15 AM +03 on June 23, 2017 (GMT +0300)
Ataturk

Weather History for LTBA - July, 2012

Change the Weather History Date:

Sunday, July 1, 2012

  Actual Average Record
Temperature  
Mean Temperature 77 °F -  
Max Temperature 85 °F 83 °F 98 °F (1998)
Min Temperature 69 °F 69 °F 64 °F (1996)
Cooling Degree Days 12    
Growing Degree Days 27 (Base 50)    
Moisture  
Dew Point 54 °F    
Average Humidity 46    
Maximum Humidity 64    
Minimum Humidity 20    
Precipitation  
Precipitation 0.00 in - - ()
Sea Level Pressure  
Sea Level Pressure 30.03 in    
Wind  
Wind Speed 10 mph ()    
Max Wind Speed 20 mph    
Max Gust Speed 30 mph    
Visibility 6.1 miles    
Events      
Averages and records for this station are not official NWS values.
T = Trace of Precipitation, MM = Missing Value Source: Averaged Metar Reports

Daily Weather History Graph

Daily Weather History Graph

Search for Another Location

Airport or City:

Trip Planner

Search our weather history database for the weather conditions in past years. The results will help you decide how hot, cold, wet, or windy it might be!

Date:

Astronomy

Jul. 01, 2012 Rise Set
Actual Time 5:36 AM EEST 8:40 PM EEST
Civil Twilight 5:03 AM EEST 9:13 PM EEST
Nautical Twilight 4:20 AM EEST 9:56 PM EEST
Astronomical Twilight 3:30 AM EEST 10:46 PM EEST
Moon 6:21 PM EEST (7/1) 3:06 AM EEST (7/1)
Length of Visible Light 16h 10m
Length of Day
15h 04m
Waxing Gibbous, 92% of the Moon is Illuminated
Jul 1
Waxing Gibbous
Jul 3
Full
Jul 11
Last Quarter
Jul 19
New
Jul 26
First Quarter

Hourly Weather History & Observations

Time (EEST) Temp. Heat Index Dew Point Humidity Pressure Visibility Wind Dir Wind Speed Gust Speed Precip Events Conditions
12:20 AM 73.4 °F - 55.4 °F 53% 30.04 in - East 5.8 mph - N/A   Clear
12:50 AM 71.6 °F - 59.0 °F 64% 30.04 in - East 5.8 mph - N/A   Clear
1:20 AM 71.6 °F - 57.2 °F 60% 30.04 in - East 6.9 mph - N/A   Clear
1:50 AM 71.6 °F - 57.2 °F 60% 30.04 in - NE 5.8 mph - N/A   Clear
2:20 AM 71.6 °F - 53.6 °F 53% 30.04 in - ENE 6.9 mph - N/A   Clear
2:50 AM 71.6 °F - 53.6 °F 53% 30.04 in - ENE 8.1 mph - N/A   Clear
3:00 AM 71 °F - 53 °F 43% 30.04 in 6 mi ENE 8.1 mph - -  
3:20 AM 71.6 °F - 53.6 °F 53% 30.01 in - NE 8.1 mph - N/A   Clear
3:50 AM 71.6 °F - 53.6 °F 53% 30.01 in - NE 9.2 mph - N/A   Clear
4:20 AM 71.6 °F - 53.6 °F 53% 30.01 in - NE 9.2 mph - N/A   Clear
4:50 AM 69.8 °F - 53.6 °F 56% 30.01 in - NE 9.2 mph - N/A   Clear
5:20 AM 69.8 °F - 53.6 °F 56% 30.01 in - ENE 9.2 mph - N/A   Clear
5:50 AM 69.8 °F - 55.4 °F 60% 30.04 in - NE 9.2 mph - N/A   Clear
6:20 AM 69.8 °F - 55.4 °F 60% 30.04 in - NE 9.2 mph - N/A   Clear
6:50 AM 71.6 °F - 55.4 °F 57% 30.04 in - NE 9.2 mph - N/A   Clear
7:20 AM 71.6 °F - 53.6 °F 53% 30.04 in - NE 9.2 mph - N/A   Clear
7:50 AM 73.4 °F - 53.6 °F 50% 30.04 in - ENE 8.1 mph - N/A   Clear
8:20 AM 75.2 °F - 53.6 °F 47% 30.04 in - East 10.4 mph - N/A   Clear
8:50 AM 75.2 °F - 53.6 °F 47% 30.04 in - East 11.5 mph - N/A   Clear
9:00 AM 76 °F - 54 °F 35% 30.05 in 6 mi East 11.5 mph - -  
9:20 AM 77.0 °F - 53.6 °F 44% 30.04 in - ENE 11.5 mph - N/A   Clear
9:50 AM 77.0 °F - 53.6 °F 44% 30.04 in 6.2 mi ENE 16.1 mph - N/A   Partly Cloudy
10:20 AM 78.8 °F - 53.6 °F 42% 30.04 in 6.2 mi ENE 16.1 mph - N/A   Partly Cloudy
10:50 AM 77.0 °F - 51.8 °F 41% 30.04 in 6.2 mi ENE 16.1 mph - N/A   Partly Cloudy
11:20 AM 80.6 °F 80.3 °F 53.6 °F 39% 30.04 in 6.2 mi ENE 12.7 mph - N/A   Partly Cloudy
11:50 AM 80.6 °F - 50.0 °F 34% 30.04 in 6.2 mi ENE 16.1 mph - N/A   Partly Cloudy
12:20 PM 82.4 °F - 50.0 °F 32% 30.04 in 6.2 mi ENE 13.8 mph - N/A   Partly Cloudy
12:50 PM 82.4 °F - 50.0 °F 32% 30.04 in 6.2 mi ENE 15.0 mph - N/A   Partly Cloudy
1:20 PM 80.6 °F - 46.4 °F 30% 30.04 in 6.2 mi NE 17.3 mph - N/A   Partly Cloudy
1:50 PM 82.4 °F - 50.0 °F 32% 30.01 in - NE 13.8 mph - N/A   Clear
2:20 PM 82.4 °F - 48.2 °F 30% 30.04 in - NE 13.8 mph - N/A   Clear
2:50 PM 82.4 °F - 50.0 °F 32% 30.04 in - NNE 16.1 mph - N/A   Clear
3:00 PM 82 °F - 48 °F 20% 30.03 in 6 mi NNE 16.1 mph - -  
3:20 PM 82.4 °F - 50.0 °F 32% 30.01 in - NE 16.1 mph - N/A   Clear
3:50 PM 82.4 °F - 51.8 °F 35% 30.01 in - NE 17.3 mph - N/A   Clear
4:20 PM 80.6 °F - 51.8 °F 37% 30.01 in - NE 18.4 mph - N/A   Clear
4:50 PM 80.6 °F 80.3 °F 53.6 °F 39% 30.01 in - NNE 19.6 mph - N/A   Clear
5:20 PM 80.6 °F 80.3 °F 53.6 °F 39% 30.04 in - NNE 19.6 mph - N/A   Clear
5:50 PM 80.6 °F 80.5 °F 55.4 °F 42% 30.01 in - NNE 18.4 mph - N/A   Clear
6:20 PM 78.8 °F - 55.4 °F 44% 30.01 in - NE 19.6 mph - N/A   Clear
6:50 PM 78.8 °F - 55.4 °F 44% 30.01 in - NE 17.3 mph - N/A   Clear
7:20 PM 78.8 °F - 53.6 °F 42% 30.01 in - ENE 19.6 mph - N/A   Clear
7:50 PM 78.8 °F - 55.4 °F 44% 30.01 in - NE 16.1 mph - N/A   Clear
8:20 PM 77.0 °F - 55.4 °F 47% 30.01 in - ENE 16.1 mph 29.9 mph N/A   Clear
8:50 PM 77.0 °F - 57.2 °F 50% 30.04 in - NE 16.1 mph - N/A   Clear
9:00 PM 77 °F - 56 °F 37% 30.03 in 6 mi NE 16.1 mph - -  
9:20 PM 77.0 °F - 55.4 °F 47% 30.04 in - NE 16.1 mph - N/A   Clear
9:50 PM 75.2 °F - 57.2 °F 53% 30.04 in - NE 16.1 mph - N/A   Clear
10:20 PM 75.2 °F - 57.2 °F 53% 30.04 in - NE 13.8 mph - N/A   Clear
10:50 PM 75.2 °F - 59.0 °F 57% 30.04 in - NE 16.1 mph - N/A   Clear
11:20 PM 75.2 °F - 59.0 °F 57% 30.04 in - ENE 13.8 mph - N/A   Clear
11:50 PM 75.2 °F - 59.0 °F 57% 30.04 in - NE 11.5 mph - N/A   Clear